contact:dominique.lefevre@mio.osupytheas.fr, maurice.libes@osupytheas.fr, didier.mallarino@osupytheas.fr
Project:EMSO http://www.emso-fr.org/EMSO-France
Depth: 2436.0 m
Title:EMSO Ligure Ouest : Data MII capteur AQUADOPP
Date,Latitude,Longitude,X_East,Y_North,Z_Up,Amplitude_X,Amplitude_Y,Amplitude_Z,Batterie,SoundSpeed,Heading,Pitch,Roll,Pressure,TIS,Speed,Direction
, degrees North, degrees East, m.s-1, m.s-1,m.s-1, 1, 1, 1, Volt, m.s-1, degree, degree, degree, dbar, degree_C, m.s-1, degree
2023-08-18T00:04:03,42.805,6.029,-0.023,0.008,-0.05,103.0,102.0,101.0,13.3,1505.2,344.3,-0.8,1.8,2471.489,13.29,0.024,289.2
2023-08-18T00:07:03,42.805,6.029,-0.038,0.02,-0.034,103.0,102.0,101.0,13.4,1505.2,338.5,-0.8,1.8,2471.505,13.29,0.042,297.8
2023-08-18T00:10:03,42.805,6.029,-0.036,0.007,-0.027,102.0,102.0,101.0,13.4,1505.2,327.8,-0.8,1.8,2471.466,13.29,0.036,281.0
2023-08-18T00:13:03,42.805,6.029,-0.016,0.002,-0.028,102.0,102.0,102.0,13.3,1505.2,329.2,-0.7,1.8,2471.509,13.29,0.016,277.1
2023-08-18T00:16:03,42.805,6.029,-0.033,-0.012,-0.037,104.0,102.0,101.0,13.4,1505.2,347.4,-0.8,1.8,2471.472,13.29,0.035,250.0
2023-08-18T00:19:03,42.805,6.029,-0.032,0.006,-0.03,103.0,101.0,102.0,13.3,1505.2,341.1,-0.8,1.8,2471.455,13.29,0.032,280.6
2023-08-18T00:22:03,42.805,6.029,-0.055,0.002,-0.032,101.0,103.0,101.0,13.3,1505.2,340.0,-0.8,1.8,2471.451,13.29,0.055,272.1
2023-08-18T00:25:03,42.805,6.029,-0.014,-0.008,-0.01,102.0,102.0,101.0,13.4,1505.2,339.3,-0.7,1.8,2471.435,13.29,0.016,240.3
2023-08-18T00:28:03,42.805,6.029,-0.02,0.018,-0.028,103.0,102.0,102.0,13.4,1505.2,341.2,-0.8,1.8,2471.409,13.29,0.026,312.0
2023-08-18T00:31:03,42.805,6.029,-0.039,-0.008,-0.054,102.0,103.0,102.0,13.4,1505.2,323.6,-0.8,1.8,2471.464,13.29,0.039,258.4
2023-08-18T00:34:03,42.805,6.029,-0.044,-0.006,-0.031,103.0,102.0,102.0,13.4,1505.2,343.7,-0.8,1.8,2471.447,13.29,0.044,262.2
2023-08-18T00:37:03,42.805,6.029,-0.035,0.003,-0.018,103.0,102.0,101.0,13.4,1505.2,334.3,-0.8,1.8,2471.412,13.29,0.035,274.9
2023-08-18T00:40:03,42.805,6.029,-0.009,-0.02,-0.037,102.0,103.0,101.0,13.4,1505.2,337.8,-0.8,1.8,2471.447,13.29,0.021,204.2
2023-08-18T00:43:03,42.805,6.029,-0.034,0.012,-0.019,103.0,102.0,101.0,13.4,1505.2,338.3,-0.8,1.8,2471.424,13.29,0.036,289.4
2023-08-18T00:46:03,42.805,6.029,-0.024,0.011,-0.003,103.0,102.0,102.0,13.4,1505.2,344.0,-0.8,1.8,2471.402,13.29,0.026,294.6
2023-08-18T00:49:03,42.805,6.029,-0.05,-0.008,-0.048,102.0,102.0,101.0,13.4,1505.2,331.4,-0.8,1.8,2471.39,13.29,0.05,260.9
2023-08-18T00:52:03,42.805,6.029,-0.019,0.003,-0.007,103.0,102.0,101.0,13.3,1505.2,326.8,-0.8,1.8,2471.399,13.29,0.019,279.0
2023-08-18T00:55:03,42.805,6.029,-0.028,0.036,-0.022,102.0,102.0,101.0,13.4,1505.2,346.5,-0.7,1.8,2471.41,13.29,0.045,322.1
2023-08-18T00:58:03,42.805,6.029,-0.039,0.014,-0.014,103.0,101.0,101.0,13.3,1505.2,324.9,-0.8,1.8,2471.414,13.29,0.041,289.7
2023-08-18T01:04:03,42.805,6.029,-0.028,0.032,-0.008,106.0,103.0,102.0,13.4,1505.2,352.0,-0.8,1.8,2471.421,13.29,0.042,318.8
2023-08-18T01:07:03,42.805,6.029,-0.039,0.001,-0.024,103.0,103.0,101.0,13.4,1505.2,325.3,-0.8,1.8,2471.452,13.29,0.039,271.5
2023-08-18T01:10:03,42.805,6.029,-0.019,0.0,-0.031,103.0,102.0,102.0,13.4,1505.2,342.6,-0.8,1.8,2471.447,13.29,0.019,270.0
2023-08-18T01:13:03,42.805,6.029,-0.022,0.028,-0.031,103.0,102.0,101.0,13.3,1505.2,346.2,-0.8,1.8,2471.45,13.29,0.035,321.8
2023-08-18T01:16:03,42.805,6.029,-0.009,-0.002,0.012,103.0,102.0,101.0,13.4,1505.2,331.8,-0.7,1.8,2471.442,13.29,0.009,257.5
2023-08-18T01:19:03,42.805,6.029,-0.002,-0.035,-0.045,104.0,101.0,100.0,13.4,1505.2,322.3,-0.8,1.8,2471.392,13.29,0.035,183.3
2023-08-18T01:22:03,42.805,6.029,-0.032,-0.026,-0.053,102.0,106.0,102.0,13.3,1505.2,328.8,-0.8,1.8,2471.43,13.29,0.041,230.9
2023-08-18T01:25:03,42.805,6.029,-0.004,-0.005,-0.023,103.0,102.0,101.0,13.3,1505.2,340.8,-0.7,1.8,2471.408,13.29,0.006,218.7
2023-08-18T01:28:03,42.805,6.029,-0.033,0.0,-0.027,103.0,102.0,101.0,13.4,1505.2,323.9,-0.7,1.8,2471.409,13.29,0.033,270.0
2023-08-18T01:31:03,42.805,6.029,-0.016,-0.005,-0.02,102.0,103.0,101.0,13.3,1505.2,330.9,-0.8,1.8,2471.419,13.29,0.016,252.6
2023-08-18T01:34:03,42.805,6.029,-0.035,0.005,-0.047,102.0,103.0,101.0,13.3,1505.2,351.5,-0.8,1.8,2471.42,13.29,0.035,278.1
2023-08-18T01:37:03,42.805,6.029,-0.04,0.005,-0.011,101.0,104.0,102.0,13.3,1505.2,324.2,-0.7,1.8,2471.386,13.29,0.04,277.1
2023-08-18T01:40:03,42.805,6.029,-0.023,0.001,-0.024,102.0,103.0,101.0,13.4,1505.2,329.0,-0.8,1.8,2471.421,13.29,0.023,272.5
2023-08-18T01:43:03,42.805,6.029,-0.016,0.01,0.003,103.0,103.0,102.0,13.4,1505.2,338.6,-0.8,1.8,2471.391,13.29,0.018,302.0
2023-08-18T01:46:03,42.805,6.029,-0.01,-0.001,-0.023,104.0,101.0,100.0,13.4,1505.2,328.0,-0.8,1.9,2471.379,13.29,0.01,264.3
2023-08-18T01:49:03,42.805,6.029,-0.01,-0.008,-0.01,102.0,103.0,102.0,13.4,1505.2,330.3,-0.7,1.8,2471.397,13.29,0.012,231.3
2023-08-18T01:52:03,42.805,6.029,-0.026,0.004,0.021,103.0,101.0,102.0,13.4,1505.2,329.8,-0.8,1.8,2471.379,13.29,0.026,278.7
2023-08-18T01:55:03,42.805,6.029,-0.02,-0.005,-0.024,103.0,104.0,102.0,13.4,1505.2,340.0,-0.8,1.8,2471.41,13.29,0.02,256.0
2023-08-18T01:58:03,42.805,6.029,-0.021,0.01,-0.027,103.0,103.0,101.0,13.4,1505.2,341.5,-0.8,1.8,2471.404,13.29,0.023,295.5
2023-08-18T02:04:03,42.805,6.029,-0.016,-0.003,-0.035,102.0,103.0,102.0,13.4,1505.2,341.9,-0.7,1.9,2471.422,13.29,0.016,259.4
2023-08-18T02:07:03,42.805,6.029,-0.034,-0.016,-0.034,101.0,102.0,101.0,13.3,1505.2,345.0,-0.8,1.8,2471.393,13.29,0.037,244.8
2023-08-18T02:10:03,42.805,6.029,-0.023,-0.001,-0.029,103.0,102.0,102.0,13.3,1505.2,349.1,-0.7,1.8,2471.431,13.29,0.023,267.5
2023-08-18T02:13:03,42.805,6.029,-0.032,0.02,-0.033,103.0,102.0,101.0,13.3,1505.2,350.3,-0.8,1.8,2471.416,13.29,0.037,302.0
2023-08-18T02:16:03,42.805,6.029,-0.027,-0.016,-0.07,102.0,101.0,101.0,13.3,1505.2,324.7,-0.8,1.8,2471.406,13.29,0.031,239.3
2023-08-18T02:19:03,42.805,6.029,-0.02,-0.018,-0.043,101.0,102.0,102.0,13.3,1505.2,328.5,-0.7,1.8,2471.393,13.29,0.026,228.0
2023-08-18T02:22:03,42.805,6.029,-0.008,-0.004,-0.017,102.0,104.0,101.0,13.3,1505.2,351.5,-0.8,1.8,2471.403,13.29,0.008,243.4
2023-08-18T02:25:03,42.805,6.029,0.0,-0.004,-0.039,103.0,102.0,101.0,13.4,1505.2,332.5,-0.8,1.8,2471.431,13.29,0.004,180.0
2023-08-18T02:28:03,42.805,6.029,-0.008,0.0,-0.025,102.0,102.0,101.0,13.3,1505.2,348.4,-0.8,1.8,2471.391,13.29,0.008,270.0
2023-08-18T02:31:03,42.805,6.029,-0.022,-0.012,-0.03,102.0,103.0,101.0,13.4,1505.2,347.0,-0.7,1.8,2471.373,13.29,0.025,241.4
2023-08-18T02:34:03,42.805,6.029,-0.014,0.012,-0.023,102.0,102.0,101.0,13.3,1505.2,344.6,-0.7,1.8,2471.39,13.29,0.018,310.6
2023-08-18T02:37:03,42.805,6.029,-0.041,0.015,-0.01,104.0,101.0,101.0,13.4,1505.2,324.5,-0.8,1.8,2471.325,13.29,0.043,290.1
2023-08-18T02:40:03,42.805,6.029,0.005,-0.013,-0.012,103.0,103.0,102.0,13.4,1505.2,330.7,-0.8,1.8,2471.381,13.29,0.013,159.0
2023-08-18T02:43:03,42.805,6.029,-0.012,0.0,-0.049,102.0,104.0,101.0,13.4,1505.2,332.9,-0.8,1.8,2471.381,13.29,0.012,270.0
2023-08-18T02:46:03,42.805,6.029,-0.028,-0.01,-0.021,103.0,102.0,102.0,13.3,1505.2,330.5,-0.8,1.8,2471.352,13.29,0.029,250.4
2023-08-18T02:49:03,42.805,6.029,0.0,-0.002,-0.039,103.0,102.0,100.0,13.4,1505.2,327.9,-0.8,1.8,2471.401,13.29,0.002,180.0
2023-08-18T02:52:03,42.805,6.029,-0.021,-0.018,-0.039,103.0,102.0,102.0,13.4,1505.2,349.9,-0.7,1.8,2471.319,13.29,0.027,229.4
2023-08-18T02:55:03,42.805,6.029,0.002,-0.027,-0.004,104.0,102.0,101.0,13.4,1505.2,345.9,-0.8,1.8,2471.381,13.29,0.027,175.8
2023-08-18T02:58:03,42.805,6.029,0.002,-0.007,-0.032,102.0,104.0,101.0,13.4,1505.2,332.1,-0.8,1.8,2471.384,13.29,0.007,164.1
2023-08-18T03:04:03,42.805,6.029,-0.014,-0.001,-0.031,103.0,104.0,100.0,13.4,1505.2,324.9,-0.8,1.8,2471.467,13.29,0.014,265.9
2023-08-18T03:07:03,42.805,6.029,-0.016,0.003,-0.029,104.0,102.0,102.0,13.4,1505.2,345.6,-0.8,1.8,2471.426,13.29,0.016,280.6
2023-08-18T03:10:03,42.805,6.029,0.0,-0.003,-0.038,103.0,103.0,101.0,13.4,1505.2,351.2,-0.8,1.8,2471.411,13.29,0.003,180.0
2023-08-18T03:13:03,42.805,6.029,-0.018,-0.003,-0.028,103.0,102.0,101.0,13.3,1505.2,321.4,-0.8,1.8,2471.394,13.29,0.018,260.5
2023-08-18T03:16:03,42.805,6.029,-0.023,-0.013,-0.019,102.0,104.0,101.0,13.4,1505.2,345.7,-0.7,1.8,2471.388,13.29,0.026,240.5
2023-08-18T03:19:03,42.805,6.029,-0.026,0.004,-0.009,103.0,102.0,101.0,13.4,1505.2,351.2,-0.8,1.8,2471.406,13.29,0.026,278.7
2023-08-18T03:22:03,42.805,6.029,-0.026,-0.013,-0.026,102.0,102.0,102.0,13.3,1505.2,340.2,-0.7,1.8,2471.394,13.29,0.029,243.4
2023-08-18T03:25:03,42.805,6.029,-0.012,-0.005,-0.042,102.0,102.0,101.0,13.4,1505.2,325.8,-0.8,1.8,2471.385,13.29,0.013,247.4
2023-08-18T03:28:03,42.805,6.029,0.009,0.007,-0.006,102.0,102.0,101.0,13.4,1505.2,350.3,-0.8,1.8,2471.374,13.29,0.011,52.1
2023-08-18T03:31:03,42.805,6.029,-0.011,-0.017,-0.056,104.0,103.0,101.0,13.3,1505.2,341.5,-0.8,1.8,2471.399,13.29,0.02,212.9
2023-08-18T03:34:03,42.805,6.029,-0.008,-0.005,-0.031,103.0,104.0,100.0,13.3,1505.2,350.7,-0.8,1.8,2471.351,13.29,0.009,238.0
2023-08-18T03:37:03,42.805,6.029,-0.002,-0.021,-0.018,103.0,103.0,101.0,13.4,1505.2,322.7,-0.8,1.8,2471.379,13.29,0.021,185.4
2023-08-18T03:40:03,42.805,6.029,-0.014,0.0,-0.005,102.0,102.0,102.0,13.4,1505.2,337.6,-0.7,1.8,2471.385,13.29,0.014,270.0
2023-08-18T03:43:03,42.805,6.029,-0.01,-0.026,-0.049,104.0,104.0,102.0,13.3,1505.2,352.3,-0.7,1.8,2471.398,13.29,0.027,201.0
2023-08-18T03:46:03,42.805,6.029,-0.026,-0.004,-0.045,104.0,104.0,102.0,13.3,1505.2,329.2,-0.7,1.8,2471.376,13.29,0.026,261.3
2023-08-18T03:49:03,42.805,6.029,-0.016,-0.004,-0.019,103.0,104.0,101.0,13.4,1505.2,329.3,-0.8,1.8,2471.414,13.29,0.016,256.0
2023-08-18T03:52:03,42.805,6.029,-0.001,0.001,-0.022,103.0,102.0,103.0,13.3,1505.2,346.2,-0.7,1.8,2471.358,13.29,0.001,315.0
2023-08-18T03:55:03,42.805,6.029,-0.01,-0.005,-0.022,102.0,102.0,102.0,13.3,1505.2,323.6,-0.8,1.8,2471.396,13.29,0.011,243.4
2023-08-18T03:58:03,42.805,6.029,-0.007,0.0,-0.035,103.0,103.0,101.0,13.4,1505.2,321.6,-0.8,1.9,2471.363,13.29,0.007,270.0
2023-08-18T04:04:03,42.805,6.029,-0.025,-0.007,-0.062,103.0,103.0,101.0,13.4,1505.2,343.8,-0.8,1.8,2471.426,13.29,0.025,254.4
2023-08-18T04:07:03,42.805,6.029,-0.017,-0.02,-0.027,104.0,102.0,102.0,13.4,1505.2,321.6,-0.8,1.8,2471.461,13.29,0.026,220.4
2023-08-18T04:10:03,42.805,6.029,0.002,-0.02,-0.024,103.0,103.0,101.0,13.3,1505.2,341.5,-0.8,1.8,2471.421,13.29,0.02,174.3
2023-08-18T04:13:03,42.805,6.029,-0.029,0.003,-0.036,102.0,103.0,101.0,13.4,1505.2,332.1,-0.8,1.8,2471.429,13.29,0.029,275.9
2023-08-18T04:16:03,42.805,6.029,-0.023,-0.004,-0.035,103.0,103.0,100.0,13.4,1505.2,322.7,-0.7,1.8,2471.396,13.29,0.023,260.1
2023-08-18T04:19:03,42.805,6.029,-0.019,-0.002,-0.017,102.0,103.0,101.0,13.4,1505.2,344.8,-0.8,1.8,2471.384,13.29,0.019,264.0
2023-08-18T04:22:03,42.805,6.029,-0.004,-0.011,0.0,104.0,103.0,101.0,13.3,1505.2,341.9,-0.7,1.8,2471.413,13.29,0.011,200.0
2023-08-18T04:25:03,42.805,6.029,0.006,-0.042,-0.028,102.0,103.0,101.0,13.3,1505.2,332.9,-0.8,1.8,2471.397,13.29,0.042,171.9
2023-08-18T04:28:03,42.805,6.029,-0.025,-0.006,-0.007,103.0,103.0,101.0,13.4,1505.2,347.7,-0.7,1.8,2471.407,13.29,0.025,256.5
2023-08-18T04:31:03,42.805,6.029,-0.02,-0.014,-0.021,103.0,102.0,103.0,13.4,1505.2,351.8,-0.8,1.8,2471.372,13.29,0.024,235.0
2023-08-18T04:34:03,42.805,6.029,-0.009,-0.012,-0.013,102.0,103.0,101.0,13.4,1505.2,331.6,-0.8,1.8,2471.387,13.29,0.015,216.9
2023-08-18T04:37:03,42.805,6.029,-0.006,-0.006,-0.056,103.0,102.0,101.0,13.4,1505.2,330.2,-0.7,1.8,2471.404,13.29,0.008,225.0
2023-08-18T04:40:03,42.805,6.029,-0.051,0.002,-0.046,103.0,102.0,101.0,13.3,1505.2,327.0,-0.8,1.8,2471.374,13.29,0.051,272.2
2023-08-18T04:43:03,42.805,6.029,-0.009,-0.004,-0.018,103.0,103.0,100.0,13.4,1505.2,325.0,-0.8,1.8,2471.428,13.29,0.009,246.0
2023-08-18T04:46:03,42.805,6.029,-0.012,-0.011,-0.018,104.0,103.0,100.0,13.4,1505.2,337.1,-0.8,1.8,2471.399,13.29,0.016,227.5
2023-08-18T04:49:03,42.805,6.029,-0.01,0.021,-0.007,103.0,103.0,101.0,13.3,1505.2,351.8,-0.8,1.8,2471.423,13.29,0.023,334.5
2023-08-18T04:52:03,42.805,6.029,0.008,-0.015,-0.018,103.0,102.0,101.0,13.4,1505.2,339.5,-0.8,1.8,2471.377,13.29,0.017,151.9
2023-08-18T04:55:03,42.805,6.029,-0.013,-0.015,-0.05,103.0,102.0,101.0,13.4,1505.2,335.1,-0.8,1.8,2471.4,13.29,0.019,220.9
2023-08-18T04:58:03,42.805,6.029,-0.017,-0.014,-0.02,103.0,102.0,102.0,13.3,1505.2,342.3,-0.8,1.8,2471.379,13.29,0.022,230.5
2023-08-18T05:04:03,42.805,6.029,-0.016,-0.001,-0.04,102.0,103.0,101.0,13.4,1505.2,351.8,-0.8,1.8,2471.438,13.29,0.016,266.4
2023-08-18T05:07:03,42.805,6.029,0.002,-0.006,-0.021,102.0,103.0,101.0,13.4,1505.2,335.8,-0.7,1.8,2471.441,13.29,0.006,161.6
2023-08-18T05:10:03,42.805,6.029,-0.021,0.012,-0.019,103.0,102.0,101.0,13.3,1505.2,328.5,-0.7,1.8,2471.44,13.29,0.024,299.7
2023-08-18T05:13:03,42.805,6.029,-0.032,0.004,-0.041,101.0,102.0,102.0,13.4,1505.2,344.3,-0.8,1.8,2471.438,13.29,0.032,277.1
2023-08-18T05:16:03,42.805,6.029,-0.016,-0.014,-0.048,104.0,102.0,102.0,13.3,1505.2,327.7,-0.7,1.8,2471.407,13.29,0.021,228.8
2023-08-18T05:19:03,42.805,6.029,0.016,-0.007,-0.048,104.0,103.0,101.0,13.4,1505.2,329.6,-0.8,1.8,2471.439,13.29,0.017,113.6
2023-08-18T05:22:03,42.805,6.029,-0.013,0.01,-0.034,102.0,103.0,102.0,13.4,1505.2,336.6,-0.8,1.8,2471.41,13.29,0.016,307.6
2023-08-18T05:25:03,42.805,6.029,0.002,-0.036,-0.035,103.0,102.0,101.0,13.3,1505.2,332.9,-0.7,1.8,2471.453,13.29,0.036,176.8
2023-08-18T05:28:03,42.805,6.029,-0.02,0.008,-0.033,102.0,102.0,102.0,13.3,1505.2,333.4,-0.8,1.8,2471.431,13.29,0.021,291.8
2023-08-18T05:31:03,42.805,6.029,-0.003,-0.017,-0.022,102.0,102.0,102.0,13.3,1505.2,335.2,-0.8,1.8,2471.424,13.29,0.017,190.0
2023-08-18T05:34:03,42.805,6.029,-0.016,0.0,-0.022,102.0,102.0,101.0,13.3,1505.2,327.9,-0.8,1.8,2471.433,13.29,0.016,270.0
2023-08-18T05:37:03,42.805,6.029,-0.044,-0.007,-0.015,103.0,103.0,101.0,13.4,1505.2,330.7,-0.8,1.8,2471.44,13.29,0.044,261.0
2023-08-18T05:40:03,42.805,6.029,-0.013,-0.015,-0.008,103.0,103.0,101.0,13.4,1505.2,330.9,-0.8,1.8,2471.457,13.29,0.019,220.9
2023-08-18T05:43:03,42.805,6.029,-0.011,-0.012,-0.044,103.0,103.0,101.0,13.4,1505.2,326.9,-0.7,1.8,2471.428,13.29,0.016,222.5
2023-08-18T05:46:03,42.805,6.029,-0.003,-0.013,-0.014,102.0,102.0,101.0,13.4,1505.2,340.4,-0.8,1.8,2471.412,13.29,0.013,193.0
2023-08-18T05:49:03,42.805,6.029,0.006,-0.004,-0.033,103.0,103.0,102.0,13.3,1505.2,333.4,-0.8,1.8,2471.414,13.29,0.007,123.7
2023-08-18T05:52:03,42.805,6.029,0.0,-0.013,-0.026,103.0,102.0,101.0,13.3,1505.2,327.1,-0.8,1.8,2471.406,13.29,0.013,180.0
2023-08-18T05:55:03,42.805,6.029,0.005,-0.005,-0.025,103.0,102.0,101.0,13.4,1505.2,321.6,-0.8,1.8,2471.456,13.29,0.007,135.0
2023-08-18T05:58:03,42.805,6.029,0.015,-0.005,-0.035,103.0,103.0,101.0,13.4,1505.2,323.9,-0.8,1.8,2471.468,13.29,0.015,108.4
2023-08-18T06:04:03,42.805,6.029,-0.002,-0.001,-0.032,103.0,103.0,101.0,13.4,1505.2,323.6,-0.7,1.8,2471.491,13.28,0.002,243.4
2023-08-18T06:07:03,42.805,6.029,0.032,-0.025,0.018,102.0,102.0,101.0,13.4,1505.2,325.1,-0.7,1.8,2471.5,13.29,0.04,128.0
2023-08-18T06:10:03,42.805,6.029,0.0,0.005,0.02,103.0,102.0,101.0,13.3,1505.2,325.5,-0.8,1.8,2471.491,13.29,0.005,0.0
2023-08-18T06:13:03,42.805,6.029,0.026,-0.004,-0.013,103.0,103.0,101.0,13.4,1505.2,327.9,-0.8,1.8,2471.499,13.29,0.026,98.7
2023-08-18T06:16:03,42.805,6.029,-0.011,-0.011,-0.032,103.0,104.0,100.0,13.4,1505.2,330.4,-0.8,1.8,2471.458,13.29,0.015,225.0
2023-08-18T06:19:03,42.805,6.029,-0.025,-0.024,-0.031,103.0,102.0,101.0,13.4,1505.2,331.3,-0.7,1.8,2471.518,13.29,0.034,226.2
2023-08-18T06:22:03,42.805,6.029,-0.007,-0.004,-0.036,105.0,102.0,101.0,13.4,1505.2,331.2,-0.7,1.8,2471.459,13.29,0.008,240.3
2023-08-18T06:25:03,42.805,6.029,-0.007,-0.014,-0.039,103.0,102.0,101.0,13.4,1505.2,327.1,-0.8,1.8,2471.493,13.29,0.015,206.6
2023-08-18T06:28:03,42.805,6.029,-0.031,-0.004,-0.05,103.0,103.0,101.0,13.4,1505.2,345.7,-0.8,1.8,2471.486,13.29,0.031,262.7
2023-08-18T06:31:03,42.805,6.029,-0.01,0.018,-0.036,103.0,102.0,102.0,13.4,1505.2,340.8,-0.8,1.8,2471.474,13.29,0.02,330.9
2023-08-18T06:34:03,42.805,6.029,0.0,-0.018,-0.053,102.0,102.0,101.0,13.3,1505.2,330.2,-0.8,1.8,2471.477,13.29,0.018,180.0
2023-08-18T06:37:03,42.805,6.029,-0.01,0.004,-0.04,103.0,102.0,102.0,13.3,1505.2,348.9,-0.8,1.8,2471.481,13.29,0.01,291.8
2023-08-18T06:40:03,42.805,6.029,-0.013,0.009,-0.049,102.0,103.0,101.0,13.4,1505.2,340.8,-0.7,1.8,2471.5,13.29,0.015,304.7
2023-08-18T06:43:03,42.805,6.029,-0.021,-0.024,-0.049,102.0,103.0,102.0,13.3,1505.2,349.1,-0.8,1.8,2471.474,13.29,0.031,221.2
2023-08-18T06:46:03,42.805,6.029,-0.001,-0.028,-0.048,103.0,102.0,101.0,13.4,1505.2,340.4,-0.8,1.8,2471.504,13.29,0.028,182.0
2023-08-18T06:49:03,42.805,6.029,-0.025,-0.023,-0.02,103.0,102.0,101.0,13.3,1505.2,349.1,-0.8,1.8,2471.455,13.29,0.033,227.4
2023-08-18T06:52:03,42.805,6.029,-0.006,-0.008,-0.01,103.0,102.0,101.0,13.4,1505.2,340.0,-0.8,1.8,2471.44,13.29,0.01,216.9
2023-08-18T06:55:03,42.805,6.029,-0.02,-0.002,-0.012,102.0,102.0,102.0,13.3,1505.2,328.5,-0.8,1.8,2471.48,13.29,0.02,264.3
2023-08-18T06:58:03,42.805,6.029,0.002,-0.023,-0.051,102.0,103.0,101.0,13.3,1505.2,326.5,-0.7,1.8,2471.481,13.29,0.023,175.0
2023-08-18T07:04:03,42.805,6.029,0.003,-0.003,0.008,103.0,102.0,102.0,13.4,1505.2,340.0,-0.8,1.8,2471.53,13.28,0.004,135.0
2023-08-18T07:07:03,42.805,6.029,-0.018,-0.015,-0.007,104.0,102.0,101.0,13.4,1505.2,351.8,-0.8,1.8,2471.502,13.29,0.023,230.2
2023-08-18T07:10:03,42.805,6.029,0.009,-0.017,-0.032,103.0,103.0,101.0,13.3,1505.2,351.2,-0.8,1.8,2471.462,13.29,0.019,152.1
2023-08-18T07:13:03,42.805,6.029,-0.004,-0.005,0.0,103.0,102.0,101.0,13.4,1505.2,336.1,-0.8,1.8,2471.538,13.29,0.006,218.7
2023-08-18T07:16:03,42.805,6.029,0.011,-0.009,-0.012,103.0,102.0,102.0,13.4,1505.2,337.2,-0.8,1.8,2471.498,13.29,0.014,129.3
2023-08-18T07:19:03,42.805,6.029,0.014,0.003,-0.013,103.0,102.0,101.0,13.4,1505.2,343.2,-0.8,1.8,2471.512,13.29,0.014,77.9
2023-08-18T07:22:03,42.805,6.029,-0.014,-0.029,-0.05,102.0,104.0,101.0,13.3,1505.2,341.5,-0.7,1.8,2471.503,13.29,0.032,205.8
2023-08-18T07:25:03,42.805,6.029,-0.019,-0.008,-0.018,103.0,103.0,100.0,13.3,1505.2,336.8,-0.8,1.8,2471.521,13.29,0.02,247.2
2023-08-18T07:28:03,42.805,6.029,-0.005,-0.016,-0.035,103.0,104.0,101.0,13.3,1505.2,321.0,-0.8,1.8,2471.515,13.29,0.016,197.4
2023-08-18T07:31:03,42.805,6.029,-0.006,-0.015,-0.018,103.0,102.0,101.0,13.3,1505.2,339.9,-0.8,1.8,2471.523,13.29,0.016,201.8
2023-08-18T07:34:03,42.805,6.029,-0.011,-0.031,-0.051,103.0,103.0,100.0,13.4,1505.2,348.6,-0.8,1.8,2471.484,13.29,0.032,199.5
2023-08-18T07:37:03,42.805,6.029,0.001,0.001,-0.024,103.0,102.0,101.0,13.4,1505.2,343.4,-0.8,1.8,2471.463,13.29,0.001,45.0
2023-08-18T07:40:03,42.805,6.029,-0.004,-0.014,-0.048,103.0,103.0,101.0,13.3,1505.2,339.1,-0.8,1.8,2471.482,13.29,0.014,195.9
2023-08-18T07:43:03,42.805,6.029,0.002,-0.003,0.005,102.0,104.0,101.0,13.3,1505.2,331.9,-0.8,1.9,2471.506,13.29,0.003,146.3
2023-08-18T07:46:03,42.805,6.029,0.016,-0.03,-0.04,103.0,101.0,102.0,13.3,1505.2,341.9,-0.8,1.8,2471.507,13.29,0.034,151.9
2023-08-18T07:49:03,42.805,6.029,-0.001,-0.024,0.012,103.0,102.0,102.0,13.3,1505.2,326.8,-0.8,1.9,2471.515,13.29,0.024,182.4
2023-08-18T07:52:03,42.805,6.029,-0.007,-0.011,-0.019,102.0,103.0,101.0,13.4,1505.2,347.4,-0.8,1.8,2471.49,13.29,0.013,212.5
2023-08-18T07:55:03,42.805,6.029,0.012,-0.024,-0.034,102.0,104.0,101.0,13.4,1505.2,320.1,-0.8,1.8,2471.529,13.29,0.026,153.4
2023-08-18T07:58:03,42.805,6.029,-0.014,-0.003,-0.04,102.0,102.0,102.0,13.4,1505.2,338.8,-0.7,1.8,2471.523,13.29,0.014,257.9
2023-08-18T08:04:03,42.805,6.029,-0.001,-0.005,-0.013,103.0,102.0,101.0,13.4,1505.2,327.8,-0.8,1.8,2471.54,13.28,0.005,191.3
2023-08-18T08:07:03,42.805,6.029,-0.009,-0.027,0.004,103.0,102.0,101.0,13.3,1505.2,327.6,-0.7,1.8,2471.534,13.28,0.028,198.4
2023-08-18T08:10:03,42.805,6.029,0.0,-0.027,-0.003,103.0,102.0,101.0,13.4,1505.2,322.2,-0.8,1.8,2471.53,13.29,0.026,180.0
2023-08-18T08:13:03,42.805,6.029,-0.012,-0.019,-0.02,103.0,102.0,103.0,13.3,1505.2,345.6,-0.8,1.8,2471.52,13.29,0.022,212.3
2023-08-18T08:16:03,42.805,6.029,0.003,-0.026,-0.03,102.0,103.0,102.0,13.4,1505.2,322.3,-0.8,1.8,2471.532,13.29,0.026,173.4
2023-08-18T08:19:03,42.805,6.029,-0.003,-0.011,-0.026,103.0,103.0,101.0,13.4,1505.2,319.8,-0.8,1.8,2471.534,13.29,0.011,195.3
2023-08-18T08:22:03,42.805,6.029,-0.016,0.0,-0.032,103.0,102.0,102.0,13.4,1505.2,331.6,-0.8,1.8,2471.511,13.29,0.016,270.0
2023-08-18T08:25:03,42.805,6.029,0.013,-0.009,-0.035,103.0,104.0,101.0,13.4,1505.2,324.7,-0.8,1.8,2471.518,13.29,0.015,124.7
2023-08-18T08:28:03,42.805,6.029,-0.023,-0.021,-0.037,104.0,104.0,101.0,13.3,1505.2,344.5,-0.8,1.8,2471.519,13.29,0.031,227.6
2023-08-18T08:31:03,42.805,6.029,-0.009,-0.023,-0.035,103.0,103.0,102.0,13.4,1505.2,342.2,-0.8,1.8,2471.534,13.29,0.024,201.4
2023-08-18T08:34:03,42.805,6.029,0.004,-0.014,-0.003,103.0,103.0,102.0,13.4,1505.2,326.5,-0.7,1.8,2471.515,13.29,0.014,164.1
2023-08-18T08:37:03,42.805,6.029,-0.016,-0.005,-0.018,104.0,102.0,102.0,13.4,1505.2,329.3,-0.7,1.8,2471.511,13.29,0.016,252.6
2023-08-18T08:40:03,42.805,6.029,0.001,-0.014,-0.023,104.0,103.0,102.0,13.4,1505.2,342.5,-0.8,1.8,2471.511,13.29,0.014,175.9
2023-08-18T08:43:03,42.805,6.029,-0.002,-0.022,-0.042,103.0,102.0,102.0,13.4,1505.2,341.9,-0.8,1.8,2471.528,13.29,0.022,185.2
2023-08-18T08:46:03,42.805,6.029,-0.006,-0.028,-0.036,103.0,103.0,102.0,13.4,1505.2,324.6,-0.8,1.8,2471.525,13.29,0.028,192.1
2023-08-18T08:49:03,42.805,6.029,0.004,-0.024,-0.029,103.0,103.0,102.0,13.3,1505.2,326.9,-0.8,1.8,2471.509,13.29,0.024,170.5
2023-08-18T08:52:03,42.805,6.029,0.013,-0.024,-0.011,104.0,101.0,102.0,13.4,1505.2,330.2,-0.8,1.8,2471.504,13.29,0.027,151.6
2023-08-18T08:55:03,42.805,6.029,-0.016,-0.045,-0.041,103.0,102.0,101.0,13.4,1505.2,341.5,-0.8,1.8,2471.516,13.29,0.047,199.6
2023-08-18T08:58:03,42.805,6.029,-0.02,-0.027,-0.023,103.0,103.0,101.0,13.3,1505.2,332.9,-0.8,1.8,2471.497,13.29,0.033,216.5
2023-08-18T09:04:03,42.805,6.029,0.006,-0.012,-0.022,103.0,103.0,102.0,13.4,1505.2,325.1,-0.7,1.8,2471.54,13.28,0.013,153.4
2023-08-18T09:07:03,42.805,6.029,-0.011,-0.007,-0.054,103.0,102.0,101.0,13.4,1505.2,348.2,-0.8,1.8,2471.545,13.28,0.013,237.5
2023-08-18T09:10:03,42.805,6.029,-0.013,-0.018,0.012,103.0,103.0,101.0,13.4,1505.2,342.5,-0.8,1.8,2471.597,13.29,0.022,215.8
2023-08-18T09:13:03,42.805,6.029,-0.016,-0.018,-0.02,104.0,101.0,102.0,13.3,1505.2,347.2,-0.7,1.8,2471.524,13.29,0.024,221.6
2023-08-18T09:16:03,42.805,6.029,-0.024,-0.017,-0.034,103.0,103.0,101.0,13.4,1505.2,338.5,-0.7,1.8,2471.528,13.29,0.029,234.7
2023-08-18T09:19:03,42.805,6.029,0.016,-0.028,-0.037,104.0,103.0,101.0,13.3,1505.2,322.5,-0.7,1.8,2471.475,13.29,0.032,150.3
2023-08-18T09:22:03,42.805,6.029,-0.002,-0.015,-0.024,104.0,102.0,102.0,13.4,1505.2,344.8,-0.7,1.8,2471.522,13.29,0.015,187.6
2023-08-18T09:25:03,42.805,6.029,-0.008,-0.03,-0.059,104.0,102.0,102.0,13.4,1505.2,330.3,-0.8,1.8,2471.47,13.29,0.031,194.9
2023-08-18T09:28:03,42.805,6.029,-0.023,-0.021,-0.034,103.0,103.0,101.0,13.4,1505.2,353.0,-0.7,1.8,2471.457,13.29,0.031,227.6
2023-08-18T09:31:03,42.805,6.029,-0.016,0.0,-0.028,104.0,104.0,101.0,13.4,1505.2,352.3,-0.7,1.8,2471.487,13.29,0.016,270.0
2023-08-18T09:34:03,42.805,6.029,-0.001,-0.021,-0.01,103.0,102.0,102.0,13.3,1505.2,327.1,-0.7,1.8,2471.492,13.29,0.021,182.7
2023-08-18T09:37:03,42.805,6.029,-0.007,-0.017,-0.021,103.0,103.0,102.0,13.4,1505.2,328.3,-0.8,1.8,2471.489,13.29,0.018,202.4
2023-08-18T09:40:03,42.805,6.029,-0.004,-0.026,-0.04,103.0,102.0,101.0,13.4,1505.2,342.2,-0.8,1.8,2471.488,13.29,0.026,188.7
2023-08-18T09:43:03,42.805,6.029,0.012,-0.011,0.004,103.0,103.0,101.0,13.3,1505.2,331.2,-0.8,1.8,2471.47,13.29,0.016,132.5
2023-08-18T09:46:03,42.805,6.029,-0.001,-0.027,-0.015,103.0,103.0,103.0,13.3,1505.2,322.9,-0.8,1.8,2471.466,13.29,0.027,182.1
2023-08-18T09:49:03,42.805,6.029,-0.011,-0.009,-0.026,103.0,103.0,101.0,13.3,1505.2,337.7,-0.7,1.8,2471.433,13.29,0.014,230.7
2023-08-18T09:52:03,42.805,6.029,0.0,-0.041,-0.055,104.0,103.0,102.0,13.4,1505.2,344.8,-0.7,1.8,2471.476,13.29,0.041,180.0